Lovelock, NV

10:57 AM PDT on September 28, 2016 (GMT -0700)
Derby

Weather History for KLOL - September, 1975

Change the Weather History Date:

Monday, September 29, 1975

  Actual Average Record
Temperature  
Mean Temperature 66 °F -  
Max Temperature 82 °F 79 °F 98 °F (2010)
Min Temperature 50 °F 43 °F 25 °F (1959)
Cooling Degree Days 1    
Growing Degree Days 16 (Base 50)    
Moisture  
Dew Point 24 °F    
Average Humidity 21    
Maximum Humidity 32    
Minimum Humidity 11    
Precipitation  
Precipitation 0.00 in - - ()
Sea Level Pressure  
Sea Level Pressure 30.02 in    
Wind  
Wind Speed 9 mph (NNE)    
Max Wind Speed 17 mph    
Max Gust Speed -    
Visibility 20 miles    
Events      
Averages and records for this station are not official NWS values.
T = Trace of Precipitation, MM = Missing Value Source: NWS Daily Summary

Daily Weather History Graph

Daily Weather History Graph

Search for Another Location

Airport or City:

Trip Planner

Search our weather history database for the weather conditions in past years. The results will help you decide how hot, cold, wet, or windy it might be!

Date:

Astronomy

Sep. 29, 1975 Rise Set
Actual Time 6:48 AM PDT 6:40 PM PDT
Civil Twilight 6:21 AM PDT 7:07 PM PDT
Nautical Twilight 5:49 AM PDT 7:38 PM PDT
Astronomical Twilight 5:17 AM PDT 8:10 PM PDT
Moon 12:26 AM PDT (9/29) 3:01 PM PDT (9/29)
Length of Visible Light 12h 46m
Length of Day
11h 52m
Last Quarter, 36% of the Moon is Illuminated
Sep 29
Last Quarter
Oct 4
New
Oct 11
First Quarter
Oct 19
Full
Oct 27
Last Quarter

Hourly Weather History & Observations

Time (PDT) Temp. Dew Point Humidity Pressure Visibility Wind Dir Wind Speed Gust Speed Precip Events Conditions
12:00 AM 55.9 °F 24.3 °F 29% 30.01 in 20.0 mi South 4.6 mph - N/A   Clear
1:00 AM 55.0 °F 19.2 °F 25% 30.01 in 20.0 mi North 6.9 mph - N/A   Clear
2:00 AM 61.0 °F 22.1 °F 22% 30.00 in 20.0 mi North 10.4 mph - N/A   Clear
3:00 AM 50.0 °F 21.2 °F 32% 30.02 in 20.0 mi SSE 4.6 mph - N/A   Clear
4:00 AM 60.1 °F 23.2 °F 24% 30.00 in 20.0 mi North 13.8 mph - N/A   Clear
5:00 AM 61.0 °F 24.3 °F 25% 30.01 in 20.0 mi North 11.5 mph - N/A   Clear
6:00 AM 59.0 °F 23.2 °F 25% 30.03 in 35.0 mi North 9.2 mph - N/A   Clear
7:00 AM 57.0 °F 24.3 °F 28% 30.06 in 50.0 mi NNE 11.5 mph - N/A   Clear
8:00 AM 60.1 °F 23.2 °F 24% 30.07 in 50.0 mi North 11.5 mph - N/A   Clear
9:00 AM 64.0 °F 26.2 °F 24% 30.09 in 50.0 mi North 11.5 mph - N/A   Clear
10:00 AM 66.9 °F 29.1 °F 24% 30.09 in 50.0 mi North 13.8 mph - N/A   Clear
11:00 AM 73.9 °F 26.2 °F 17% 30.08 in 50.0 mi North 13.8 mph - N/A   Clear
12:00 PM 75.0 °F 28.2 °F 18% 30.07 in 50.0 mi North 12.7 mph - N/A   Clear
1:00 PM 80.1 °F 29.1 °F 16% 30.05 in 50.0 mi North 11.5 mph - N/A   Clear
2:00 PM 81.0 °F 26.2 °F 13% 30.00 in 50.0 mi East 9.2 mph - N/A   Clear
3:00 PM 82.9 °F 23.2 °F 11% 30.00 in 50.0 mi North 6.9 mph - N/A   Clear
4:00 PM 82.0 °F 24.3 °F 12% 29.98 in 50.0 mi NNE 6.9 mph - N/A   Clear
5:00 PM 82.0 °F 24.3 °F 12% 29.95 in 50.0 mi NNE 17.3 mph - N/A   Clear
6:00 PM 80.1 °F 25.2 °F 13% 29.96 in 50.0 mi NNE 15.0 mph - N/A   Clear
7:00 PM 73.9 °F 24.3 °F 16% 29.99 in 50.0 mi NNE 10.4 mph - N/A   Clear
8:00 PM 69.1 °F 22.1 °F 17% 30.01 in 20.0 mi NNE 10.4 mph - N/A   Clear
9:00 PM 62.1 °F 22.1 °F 22% 30.03 in 20.0 mi NE 4.6 mph - N/A   Clear
10:00 PM 62.1 °F 23.2 °F 23% 30.03 in 20.0 mi South 4.6 mph - N/A   Clear
11:00 PM 60.1 °F 20.1 °F 21% 30.03 in 20.0 mi East 8.1 mph - N/A   Clear